Hourly Data Report for January 05, 2018

All times are specified in Local Standard Time (LST). Add 1 hour to adjust for Daylight Saving Time where and when it is observed.

TORONTO INTL A
ONTARIO

43°40'36.000" N
79°37'50.000" W
173.40 m
6158731
71624
YYZ

Download Data

Hourly Data (January 2018)
Hourly Data Report for January 5, 2018
Temp Definition
°C
Dew Point Temp Definition
°C
Rel Hum Definition
%
Wind Dir Definition
10's deg

Wind Spd Definition
km/h
Visibility Definition
km
Stn Press Definition
kPa
Hmdx Definition


Wind Chill Definition


Weather Definition


TIME
00:00 -20.1 -25.3 64 33 26 24.1 99.26   -32 LegendNANA
01:00 -20.5 -25.6 65 33 29 24.1 99.27   -33 Clear
02:00 -21.2 -26.0 66 32 32 24.1 99.31   -34 LegendNANA
03:00 -21.6 -26.4 66 33 28 24.1 99.39   -34 LegendNANA
04:00 -21.9 -26.7 66 32 23 24.1 99.41   -34 Clear
05:00 -21.6 -26.3 66 32 27 24.1 99.43   -34 LegendNANA
06:00 -23.0 LegendMM LegendMM 32 35 24.1 99.46   -37 LegendNANA
07:00 -22.0 -26.7 66 32 21 24.1 99.53   -33 Clear
08:00 -21.9 -26.6 67 32 18 24.1 99.58   -32 LegendNANA
09:00 -21.2 -26.2 65 32 21 24.1 99.65   -32 LegendNANA
10:00 -20.4 -25.6 64 32 19 24.1 99.70   -31 Mainly Clear
11:00 -19.0 -24.7 62 32 22 24.1 99.73   -30 LegendNANA
12:00 -18.3 -24.4 59 32 20 24.1 99.74   -28 LegendNANA
13:00 -17.5 -23.4 60 32 19 4.8 99.71   -27 Snow Showers
14:00 -16.5 -21.5 66 33 11 12.9 99.70   -23 Snow Showers
15:00 -15.2 -22.9 52 30 40 24.1 99.73   -28 LegendNANA
16:00 -15.9 -24.7 48 30 39 24.1 99.81   -29 Mostly Cloudy
17:00 -16.9 -25.6 48 29 32 24.1 99.85   -29 LegendNANA
18:00 -17.7 -25.7 51 29 31 24.1 99.89   -30 LegendNANA
19:00 -17.4 -25.5 50 29 37 24.1 99.91   -30 Mainly Clear
20:00 -17.2 -25.6 49 30 31 24.1 99.94   -29 LegendNANA
21:00 -18.4 -25.8 53 27 25 24.1 99.96   -30 LegendNANA
22:00 -19.3 -25.8 57 27 24 24.1 99.97   -31 Mainly Clear
23:00 -19.1 -25.4 58 30 25 24.1 100.03   -30 LegendNANA

Notes on Data Quality.

Legend

  • E = Estimated
  • M = Missing
  • NA = Not Available
Date modified: